This demonstration page uses our WeatherBlox Daily Observations layout. Learn more.

Left ArrowRight Arrow

38.88101, -77.10428

Hourly Observations for October 31, 2022

Temp ( °F °C ) Dew Point ( °F °C ) Humidity (%) Winds ( mph kmh ) Pressure ( in mb ) Visibility ( mi km ) Precip ( " mm )
12:52 am 00:52 Cloudy 55 12.8 49 9.4 80 80 Calm 30.12 1020 10 16 0.00 0.00
1:52 am 01:52 Cloudy 54 12.2 49 9.4 83 83 ENE 5 7 30.10 1019 10 16 0.00 0.00
2:52 am 02:52 Cloudy 55 12.8 50 10 83 83 S 3 6 30.10 1019 10 16 0.00 0.00
3:52 am 03:52 Cloudy 56 13.3 52 11.1 87 87 S 5 7 30.08 1019 10 16 0.00 0.00
4:30 am 04:30 Cloudy 56 13.3 52 11.1 87 87 S 7 11 30.09 1019 10 16 0.00 0.00
4:37 am 04:37 Cloudy 56 13.3 52 11.1 87 87 SSE 6 9 30.08 1019 10 16 0.00 0.00
4:43 am 04:43 Cloudy 56 13.3 52 11.1 87 87 S 6 9 30.09 1019 10 16 0.00 0.00
4:56 am 04:56 Cloudy 56 13.3 52 11.1 87 87 S 7 11 30.08 1019 10 16 0.00 0.00
5:52 am 05:52 Cloudy 56 13.3 53 11.7 90 90 SSE 5 7 30.08 1019 10 16 0.00 0.00
5:59 am 05:59 Cloudy 56 13.3 54 12.2 93 93 SSE 5 7 30.08 1019 10 16 0.00 0.00
6:23 am 06:23 Cloudy 57 13.9 54 12.2 89 89 S 6 9 30.08 1019 10 16 0.00 0.00
6:52 am 06:52 Cloudy 57 13.9 54 12.2 89 89 S 3 6 30.08 1019 10 16 0.00 0.00
7:07 am 07:07 Cloudy 57 13.9 54 12.2 89 89 S 7 11 30.07 1018 10 16 0.00 0.00
7:40 am 07:40 Cloudy 57 13.9 54 12.2 89 89 S 7 11 30.09 1019 9 14 0.00 0.00
7:52 am 07:52 Cloudy 57 13.9 55 12.8 93 93 S 7 11 30.09 1019 10 16 0.00 0.00
8:52 am 08:52 Mostly Cloudy with Drizzle 58 14.4 55 12.8 90 90 S 6 9 30.09 1019 10 16 0.01 0.13
9:52 am 09:52 Cloudy 59 15 55 12.8 87 87 S 7 11 30.09 1019 7 11 0.01 0.13
9:59 am 09:59 Cloudy with Light Rain 59 15 55 12.8 87 87 SSW 13 20 30.10 1019 5 8 0.01 0.13
10:04 am 10:04 Cloudy with Rain 58 14.4 55 12.8 90 90 S 10 17 30.10 1019 4 6 0.02 0.51
10:16 am 10:16 Cloudy 59 15 56 13.3 90 90 S 8 13 30.10 1019 8 13 0.04 1.02
10:52 am 10:52 Cloudy 60 15.6 55 12.8 83 83 SSW 7 11 30.10 1019 9 14 0.04 1.02
11:32 am 11:32 Cloudy with Drizzle 61 16.1 56 13.3 83 83 S 7 11 30.08 1019 10 16 0.01 0.13
11:52 am 11:52 Cloudy 62 16.7 56 13.3 80 80 S 7 11 30.07 1018 10 16 0.01 0.13
12:52 pm 12:52 Cloudy with Light Rain 64 17.8 57 13.9 78 78 S 6 9 30.06 1018 9 14 0.01 0.13
1:04 pm 13:04 Cloudy 64 17.8 56 13.3 75 75 SSW 12 19 30.05 1018 10 16 0.01 0.13
1:52 pm 13:52 Mostly Cloudy 67 19.4 57 13.9 71 71 S 10 17 30.02 1017 10 16 0.01 0.13
2:52 pm 14:52 Cloudy 66 18.9 58 14.4 75 75 S 10 17 30.00 1016 10 16 0.00 0.00
3:52 pm 15:52 Cloudy 66 18.9 57 13.9 73 73 SSW 13 20 30.00 1016 10 16 0.00 0.00
4:09 pm 16:09 Cloudy with Light Rain 65 18.3 58 14.4 78 78 SSW 9 15 30.01 1016 10 16 0.01 0.13
4:30 pm 16:30 Cloudy with Light Rain 64 17.8 58 14.4 80 80 SW 9 15 30.01 1016 5 8 0.02 0.51
4:47 pm 16:47 Cloudy with Light Rain 64 18 59 15 83 83 SW 6 9 30.01 1016 9 14 0.02 0.51
4:52 pm 16:52 Cloudy with Light Rain 64 17.8 59 15 84 84 SSW 6 9 30.00 1016 8 13 0.03 0.76
5:30 pm 17:30 Cloudy with Light Rain 64 17.8 59 15 84 84 SW 6 9 30.01 1016 10 16 0.01 0.25
5:35 pm 17:35 Cloudy with Light Rain 64 17.8 59 15 84 84 SW 5 7 30.01 1016 10 16 0.01 0.25
5:52 pm 17:52 Cloudy with Light Rain 63 17.2 60 15.6 90 90 SSW 5 7 30.01 1016 10 16 0.01 0.25
6:52 pm 18:52 Cloudy with Light Rain 62 16.7 59 15 90 90 S 5 7 30.01 1016 10 16 0.01 0.13
7:52 pm 19:52 Cloudy with Light Rain 61 16.1 59 15 93 93 SE 3 6 30.01 1016 8 13 0.03 0.76
8:52 pm 20:52 Cloudy with Light Rain 61 16.1 59 15 93 93 Calm 30.02 1017 8 13 0.01 0.25
9:52 pm 21:52 Cloudy with Rain 61 16.1 59 15 93 93 Calm 30.01 1016 4 6 0.03 0.76
10:52 pm 22:52 Cloudy with Drizzle 61 16.1 59 15 93 93 SSW 6 9 30.01 1016 9 14 0.01 0.25
11:52 pm 23:52 Cloudy 61 16.1 60 15.6 97 97 SSW 6 9 30.01 1016 10 16 0.01 0.13

Powered by AerisWeather